This is the latest recevied weather packets stored in our database for station/object KC5TIL-3. If no packets are shown the sender has not sent any weather packets the latest 10 day(s).
| Time | Temp. | Humidity | Pressure | Rain* | Wind** | Luminosity | Snow |
|---|---|---|---|---|---|---|---|
| 1787981957 | 30.56° C | 21% | 1013.8 hPa | 0 mm | 1.79 m/s, 241° | - | - |
| 1787981659 | 30.56° C | 20% | 1013.8 hPa | 0 mm | 2.24 m/s, 150° | - | - |
| 1787981361 | 30.56° C | 20% | 1013.8 hPa | 0 mm | 2.24 m/s, 204° | - | - |
| 1787981059 | 31.11° C | 20% | 1013.8 hPa | 0 mm | 2.24 m/s, 199° | - | - |
| 1787980761 | 31.11° C | 19% | 1013.8 hPa | 0 mm | 2.24 m/s, 208° | - | - |
| 1787980463 | 31.11° C | 19% | 1013.8 hPa | 0 mm | 1.79 m/s, 164° | - | - |
| 1787980162 | 31.11° C | 19% | 1013.8 hPa | 0 mm | 1.34 m/s, 177° | - | - |
| 1787979864 | 31.11° C | 19% | 1013.8 hPa | 0 mm | 1.79 m/s, 231° | - | - |
| 1787979565 | 31.11° C | 18% | 1013.8 hPa | 0 mm | 1.79 m/s, 179° | - | - |
| 1787979264 | 31.67° C | 18% | 1013.8 hPa | 0 mm | 1.34 m/s, 159° | - | - |
| 1787978966 | 31.67° C | 17% | 1013.8 hPa | 0 mm | 0 m/s | - | - |
| 1787978663 | 31.67° C | 17% | 1013.8 hPa | 0 mm | 1.34 m/s, 192° | - | - |
| 1787978362 | 31.67° C | 17% | 1013.8 hPa | 0 mm | 0 m/s | - | - |
| 1787978064 | 32.22° C | 17% | 1013.8 hPa | 0 mm | 1.34 m/s, 182° | - | - |
| 1787977765 | 32.22° C | 15% | 1013.8 hPa | 0 mm | 1.79 m/s, 173° | - | - |
| 1787977464 | 32.22° C | 15% | 1013.8 hPa | 0 mm | 1.79 m/s, 237° | - | - |
| 1787977166 | 32.22° C | 15% | 1013.8 hPa | 0 mm | 2.24 m/s, 139° | - | - |
| 1787976868 | 32.22° C | 14% | 1013.8 hPa | 0 mm | 2.24 m/s, 167° | - | - |
| 1787976566 | 32.78° C | 14% | 1013.8 hPa | 0 mm | 2.68 m/s, 124° | - | - |
| 1787976268 | 32.78° C | 14% | 1013.8 hPa | 0 mm | 2.68 m/s, 119° | - | - |
| 1787975970 | 33.33° C | 14% | 1013.8 hPa | 0 mm | 2.24 m/s, 126° | - | - |
| 1787975668 | 33.33° C | 14% | 1013.8 hPa | 0 mm | 1.79 m/s, 125° | - | - |
| 1787975370 | 33.33° C | 14% | 1013.8 hPa | 0 mm | 1.79 m/s, 123° | - | - |
| 1787975072 | 33.33° C | 14% | 1013.8 hPa | 0 mm | 1.79 m/s, 121° | - | - |
| 1787974771 | 33.33° C | 12% | 1013.8 hPa | 0 mm | 2.68 m/s, 120° | - | - |
* Rain latest hour (hover to see other rain measurements)
** Current wind speed in m/s (hover to see current wind gust speed)